Time,TemperatureF,DewpointF,PressureIn,WindDirection,WindDirectionDegrees,WindSpeedMPH,WindSpeedGustMPH,Humidity,HourlyPrecipIn,Conditions,Clouds,dailyrainin,SoftwareType,DateUTC
2013-08-22 00:01:00,71.1,70.5,30.12,North,0,0.0,0.0,98,0.00,RA,,0.00,WeatherDisplay:10.37,2013-08-22 04:01:00,
2013-08-22 00:02:00,71.1,70.5,30.12,North,0,0.0,0.0,98,0.00,RA,,0.00,WeatherDisplay:10.37,2013-08-22 04:02:00,
2013-08-22 00:07:00,71.1,70.5,30.12,North,0,0.0,0.0,98,0.00,RA,,0.00,WeatherDisplay:10.37,2013-08-22 04:07:00,
2013-08-22 00:12:00,70.9,70.3,30.12,North,0,0.0,0.0,98,0.00,CLR,,0.00,WeatherDisplay:10.37,2013-08-22 04:12:00,
2013-08-22 00:17:00,70.9,70.3,30.12,North,0,0.0,0.0,98,0.00,CLR,,0.00,WeatherDisplay:10.37,2013-08-22 04:17:00,
2013-08-22 00:22:00,70.9,70.3,30.12,North,0,0.0,0.0,98,0.00,CLR,,0.00,WeatherDisplay:10.37,2013-08-22 04:22:00,
2013-08-22 00:27:00,70.9,70.3,30.12,North,0,0.0,0.0,98,0.00,CLR,,0.00,WeatherDisplay:10.37,2013-08-22 04:27:00,
2013-08-22 00:32:00,70.7,70.1,30.12,North,0,0.0,0.0,98,0.00,CLR,,0.00,WeatherDisplay:10.37,2013-08-22 04:32:00,
2013-08-22 00:37:00,70.7,70.1,30.12,North,0,0.0,0.0,98,0.00,CLR,,0.00,WeatherDisplay:10.37,2013-08-22 04:37:00,
2013-08-22 00:42:00,70.7,70.1,30.12,North,0,0.0,0.0,98,0.00,CLR,,0.00,WeatherDisplay:10.37,2013-08-22 04:42:00,
2013-08-22 00:47:00,70.7,70.1,30.12,North,0,0.0,0.0,98,0.00,CLR,,0.00,WeatherDisplay:10.37,2013-08-22 04:47:00,
2013-08-22 00:52:00,70.5,69.9,30.12,North,0,0.0,0.0,98,0.00,CLR,,0.00,WeatherDisplay:10.37,2013-08-22 04:52:00,
2013-08-22 00:57:00,70.5,69.9,30.12,North,0,0.0,0.0,98,0.00,CLR,,0.00,WeatherDisplay:10.37,2013-08-22 04:57:00,
2013-08-22 01:02:00,70.5,69.9,30.12,North,0,0.0,0.0,98,0.00,CLR,,0.00,WeatherDisplay:10.37,2013-08-22 05:02:00,
2013-08-22 01:07:00,70.5,69.9,30.12,North,0,0.0,0.0,98,0.00,CLR,,0.00,WeatherDisplay:10.37,2013-08-22 05:07:00,
2013-08-22 01:12:00,70.7,70.1,30.12,North,0,0.0,0.0,98,0.00,CLR,,0.00,WeatherDisplay:10.37,2013-08-22 05:12:00,
2013-08-22 01:17:00,70.5,69.9,30.12,North,0,0.0,0.0,98,0.00,CLR,,0.00,WeatherDisplay:10.37,2013-08-22 05:17:00,
2013-08-22 01:22:00,70.5,69.9,30.12,North,0,0.0,0.0,98,0.00,CLR,,0.00,WeatherDisplay:10.37,2013-08-22 05:22:00,
2013-08-22 01:27:00,70.3,69.7,30.12,North,0,0.0,0.0,98,0.00,CLR,,0.00,WeatherDisplay:10.37,2013-08-22 05:27:00,
2013-08-22 01:32:00,70.3,69.7,30.12,North,0,0.0,0.0,98,0.00,CLR,,0.00,WeatherDisplay:10.37,2013-08-22 05:32:00,
2013-08-22 01:37:00,70.3,69.7,30.12,North,0,0.0,0.0,98,0.00,CLR,,0.00,WeatherDisplay:10.37,2013-08-22 05:37:00,
2013-08-22 01:42:00,70.3,69.7,30.12,North,0,0.0,0.0,98,0.00,CLR,,0.00,WeatherDisplay:10.37,2013-08-22 05:42:00,
2013-08-22 01:47:00,70.3,69.7,30.12,North,0,0.0,0.0,98,0.00,CLR,,0.00,WeatherDisplay:10.37,2013-08-22 05:47:00,
2013-08-22 01:52:00,70.3,69.7,30.12,North,0,0.0,0.0,98,0.00,CLR,,0.00,WeatherDisplay:10.37,2013-08-22 05:52:00,
2013-08-22 01:57:00,70.3,69.7,30.12,North,0,0.0,0.0,98,0.00,CLR,,0.00,WeatherDisplay:10.37,2013-08-22 05:57:00,
2013-08-22 02:02:00,70.2,69.6,30.12,North,0,0.0,0.0,98,0.00,CLR,,0.00,WeatherDisplay:10.37,2013-08-22 06:02:00,
2013-08-22 02:07:00,70.2,69.6,30.12,North,0,0.0,0.0,98,0.00,CLR,,0.00,WeatherDisplay:10.37,2013-08-22 06:07:00,
2013-08-22 02:12:00,70.2,69.6,30.12,North,0,0.0,0.0,98,0.00,CLR,,0.00,WeatherDisplay:10.37,2013-08-22 06:12:00,
2013-08-22 02:17:00,70.2,69.6,30.12,North,0,0.0,0.0,98,0.00,CLR,,0.00,WeatherDisplay:10.37,2013-08-22 06:17:00,
2013-08-22 02:22:00,70.0,69.4,30.12,North,0,0.0,0.0,98,0.00,CLR,,0.00,WeatherDisplay:10.37,2013-08-22 06:22:00,
2013-08-22 02:27:00,70.2,69.6,30.12,North,0,0.0,0.0,98,0.00,CLR,,0.00,WeatherDisplay:10.37,2013-08-22 06:27:00,
2013-08-22 02:32:00,70.2,69.6,30.12,North,0,0.0,0.0,98,0.00,CLR,,0.00,WeatherDisplay:10.37,2013-08-22 06:32:00,
2013-08-22 02:37:00,70.2,69.6,30.12,North,0,0.0,0.0,98,0.00,CLR,,0.00,WeatherDisplay:10.37,2013-08-22 06:37:00,
2013-08-22 02:42:00,70.2,69.6,30.12,North,0,0.0,0.0,98,0.00,CLR,,0.00,WeatherDisplay:10.37,2013-08-22 06:42:00,
2013-08-22 02:47:00,70.2,69.6,30.12,North,0,0.0,0.0,98,0.00,CLR,,0.00,WeatherDisplay:10.37,2013-08-22 06:47:00,
2013-08-22 02:52:00,70.3,69.7,30.12,North,0,0.0,0.0,98,0.00,CLR,,0.00,WeatherDisplay:10.37,2013-08-22 06:52:00,
2013-08-22 02:57:00,70.3,69.7,30.12,North,0,0.0,0.0,98,0.00,CLR,,0.00,WeatherDisplay:10.37,2013-08-22 06:57:00,
2013-08-22 03:02:00,70.3,69.7,30.12,North,0,0.0,0.0,98,0.00,CLR,,0.00,WeatherDisplay:10.37,2013-08-22 07:02:00,
2013-08-22 03:07:00,70.3,69.7,30.12,North,0,0.0,0.0,98,0.00,CLR,,0.00,WeatherDisplay:10.37,2013-08-22 07:07:00,
2013-08-22 03:12:00,70.3,69.7,30.12,North,0,0.0,0.0,98,0.00,CLR,,0.00,WeatherDisplay:10.37,2013-08-22 07:12:00,
2013-08-22 03:17:00,70.3,69.7,30.12,North,0,0.0,0.0,98,0.00,CLR,,0.00,WeatherDisplay:10.37,2013-08-22 07:17:00,
2013-08-22 03:22:00,70.5,69.9,30.12,North,0,0.0,0.0,98,0.00,CLR,,0.00,WeatherDisplay:10.37,2013-08-22 07:22:00,
2013-08-22 03:27:00,70.5,69.9,30.12,North,0,0.0,0.0,98,0.00,CLR,,0.00,WeatherDisplay:10.37,2013-08-22 07:27:00,
2013-08-22 03:32:00,70.5,69.9,30.12,North,0,0.0,0.0,98,0.00,CLR,,0.00,WeatherDisplay:10.37,2013-08-22 07:32:00,
2013-08-22 03:37:00,70.7,70.1,30.12,North,0,0.0,0.0,98,0.00,CLR,,0.00,WeatherDisplay:10.37,2013-08-22 07:37:00,
2013-08-22 03:42:00,70.7,70.1,30.09,North,0,0.0,0.0,98,0.00,CLR,,0.00,WeatherDisplay:10.37,2013-08-22 07:42:00,
2013-08-22 03:47:00,70.7,70.1,30.09,North,0,0.0,0.0,98,0.00,CLR,,0.00,WeatherDisplay:10.37,2013-08-22 07:47:00,
2013-08-22 03:52:00,70.9,70.3,30.09,North,0,0.0,0.0,98,0.00,CLR,,0.00,WeatherDisplay:10.37,2013-08-22 07:52:00,
2013-08-22 03:57:00,71.1,70.5,30.12,North,0,0.0,0.0,98,0.00,CLR,,0.00,WeatherDisplay:10.37,2013-08-22 07:57:00,
2013-08-22 04:02:00,71.1,70.5,30.12,North,0,0.0,0.0,98,0.00,CLR,,0.00,WeatherDisplay:10.37,2013-08-22 08:02:00,
2013-08-22 04:07:00,71.2,70.6,30.12,North,0,0.0,0.0,98,0.00,CLR,,0.00,WeatherDisplay:10.37,2013-08-22 08:07:00,
2013-08-22 04:12:00,71.2,70.6,30.12,North,0,0.0,0.0,98,0.00,CLR,,0.00,WeatherDisplay:10.37,2013-08-22 08:12:00,
2013-08-22 04:17:00,71.2,70.6,30.12,North,0,0.0,0.0,98,0.00,CLR,,0.00,WeatherDisplay:10.37,2013-08-22 08:17:00,
2013-08-22 04:22:00,71.4,70.8,30.12,North,0,0.0,0.0,98,0.00,CLR,,0.00,WeatherDisplay:10.37,2013-08-22 08:22:00,
2013-08-22 04:27:00,71.4,70.8,30.09,North,0,0.0,0.0,98,0.00,CLR,,0.00,WeatherDisplay:10.37,2013-08-22 08:27:00,
2013-08-22 04:32:00,71.4,70.8,30.09,North,0,0.0,0.0,98,0.00,CLR,,0.00,WeatherDisplay:10.37,2013-08-22 08:32:00,
2013-08-22 04:37:00,71.6,71.0,30.09,North,0,0.0,0.0,98,0.00,CLR,,0.00,WeatherDisplay:10.37,2013-08-22 08:37:00,
2013-08-22 04:42:00,71.6,71.0,30.09,North,0,0.0,0.0,98,0.00,CLR,,0.00,WeatherDisplay:10.37,2013-08-22 08:42:00,
2013-08-22 04:47:00,71.8,71.2,30.09,North,0,0.0,0.0,98,0.00,CLR,,0.00,WeatherDisplay:10.37,2013-08-22 08:47:00,
2013-08-22 04:52:00,71.8,71.2,30.09,North,0,0.0,0.0,98,0.00,CLR,,0.00,WeatherDisplay:10.37,2013-08-22 08:52:00,
2013-08-22 04:57:00,71.8,71.2,30.09,North,0,0.0,0.0,98,0.00,CLR,,0.00,WeatherDisplay:10.37,2013-08-22 08:57:00,
2013-08-22 05:02:00,71.8,71.2,30.09,North,0,0.0,0.0,98,0.00,CLR,,0.00,WeatherDisplay:10.37,2013-08-22 09:02:00,
2013-08-22 05:07:00,71.8,71.2,30.09,North,0,0.0,0.0,98,0.00,CLR,,0.00,WeatherDisplay:10.37,2013-08-22 09:07:00,
2013-08-22 05:12:00,71.8,71.2,30.09,North,0,0.0,0.0,98,0.00,CLR,,0.00,WeatherDisplay:10.37,2013-08-22 09:12:00,
2013-08-22 05:17:00,71.6,71.0,30.09,North,0,0.0,0.0,98,0.00,CLR,,0.00,WeatherDisplay:10.37,2013-08-22 09:17:00,
2013-08-22 05:22:00,71.6,71.0,30.09,North,0,0.0,0.0,98,0.00,CLR,,0.00,WeatherDisplay:10.37,2013-08-22 09:22:00,
2013-08-22 05:27:00,71.6,71.0,30.09,North,0,0.0,0.0,98,0.00,CLR,,0.00,WeatherDisplay:10.37,2013-08-22 09:27:00,
2013-08-22 05:32:00,71.4,70.8,30.09,North,0,0.0,0.0,98,0.00,CLR,,0.00,WeatherDisplay:10.37,2013-08-22 09:32:00,
2013-08-22 05:37:00,71.4,70.8,30.09,North,0,0.0,0.0,98,0.00,CLR,,0.00,WeatherDisplay:10.37,2013-08-22 09:37:00,
2013-08-22 05:42:00,71.2,70.6,30.09,North,0,0.0,0.0,98,0.00,CLR,,0.00,WeatherDisplay:10.37,2013-08-22 09:42:00,
2013-08-22 05:47:00,71.2,70.6,30.09,North,0,0.0,0.0,98,0.00,CLR,,0.00,WeatherDisplay:10.37,2013-08-22 09:47:00,
2013-08-22 05:52:00,71.1,70.5,30.09,North,0,0.0,0.0,98,0.00,CLR,,0.00,WeatherDisplay:10.37,2013-08-22 09:52:00,
2013-08-22 05:57:00,71.1,70.5,30.09,North,0,0.0,0.0,98,0.00,CLR,,0.00,WeatherDisplay:10.37,2013-08-22 09:57:00,
2013-08-22 06:02:00,71.1,70.5,30.09,North,0,0.0,0.0,98,0.00,CLR,,0.00,WeatherDisplay:10.37,2013-08-22 10:02:00,
2013-08-22 06:07:00,71.1,70.5,30.09,North,0,0.0,0.0,98,0.00,CLR,,0.00,WeatherDisplay:10.37,2013-08-22 10:07:00,
2013-08-22 06:12:00,70.9,70.3,30.09,North,0,0.0,0.0,98,0.00,CLR,,0.00,WeatherDisplay:10.37,2013-08-22 10:12:00,
2013-08-22 06:17:00,70.9,70.3,30.09,North,0,0.0,0.0,98,0.00,CLR,,0.00,WeatherDisplay:10.37,2013-08-22 10:17:00,
2013-08-22 06:22:00,70.7,70.1,30.09,North,0,0.0,0.0,98,0.00,CLR,,0.00,WeatherDisplay:10.37,2013-08-22 10:22:00,
2013-08-22 06:27:00,70.7,70.1,30.09,North,0,0.0,0.0,98,0.00,CLR,,0.00,WeatherDisplay:10.37,2013-08-22 10:27:00,
2013-08-22 06:32:00,70.7,70.1,30.09,North,0,0.0,0.0,98,0.00,CLR,,0.00,WeatherDisplay:10.37,2013-08-22 10:32:00,
2013-08-22 06:37:00,70.5,69.9,30.09,North,0,0.0,0.0,98,0.00,CLR,,0.00,WeatherDisplay:10.37,2013-08-22 10:37:00,
2013-08-22 06:42:00,70.5,69.9,30.09,North,0,0.0,0.0,98,0.00,CLR,,0.00,WeatherDisplay:10.37,2013-08-22 10:42:00,
2013-08-22 06:47:00,70.5,69.9,30.09,North,0,0.0,0.0,98,0.00,CLR,,0.00,WeatherDisplay:10.37,2013-08-22 10:47:00,
2013-08-22 08:27:00,72.1,71.5,30.12,North,0,0.0,0.0,98,0.00,CLR,,0.00,WeatherDisplay:10.37,2013-08-22 12:27:00,
2013-08-22 08:32:00,72.5,71.9,30.12,North,0,0.0,0.0,98,0.00,CLR,,0.00,WeatherDisplay:10.37,2013-08-22 12:32:00,
2013-08-22 08:37:00,72.9,72.3,30.12,North,0,0.0,0.0,98,0.00,CLR,,0.00,WeatherDisplay:10.37,2013-08-22 12:37:00,
2013-08-22 08:42:00,73.0,72.4,30.12,North,0,0.0,0.0,98,0.00,CLR,,0.00,WeatherDisplay:10.37,2013-08-22 12:42:00,
2013-08-22 08:47:00,73.4,72.8,30.12,North,0,0.0,0.0,98,0.00,CLR,,0.00,WeatherDisplay:10.37,2013-08-22 12:47:00,
2013-08-22 08:52:00,73.8,73.2,30.12,North,0,0.0,0.0,98,0.00,CLR,,0.00,WeatherDisplay:10.37,2013-08-22 12:52:00,
2013-08-22 08:57:00,73.8,73.2,30.12,North,0,0.0,0.0,98,0.00,CLR,,0.00,WeatherDisplay:10.37,2013-08-22 12:57:00,
2013-08-22 09:01:00,73.8,73.2,30.12,North,0,0.0,0.0,98,0.00,CLR,,0.00,WeatherDisplay:10.37,2013-08-22 13:01:00,
2013-08-22 09:06:00,73.9,73.3,30.12,North,0,0.0,0.0,98,0.00,CLR,,0.00,WeatherDisplay:10.37,2013-08-22 13:06:00,
2013-08-22 09:11:00,74.3,73.7,30.12,North,0,0.0,0.0,98,0.00,CLR,,0.00,WeatherDisplay:10.37,2013-08-22 13:11:00,
2013-08-22 09:16:00,74.7,74.1,30.12,North,0,0.0,0.0,98,0.00,CLR,,0.00,WeatherDisplay:10.37,2013-08-22 13:16:00,
2013-08-22 09:21:00,75.0,74.4,30.12,SSW,202,0.0,0.0,98,0.00,CLR,,0.00,WeatherDisplay:10.37,2013-08-22 13:21:00,
2013-08-22 09:26:00,75.9,75.3,30.12,SSW,202,0.0,0.0,98,0.00,CLR,,0.00,WeatherDisplay:10.37,2013-08-22 13:26:00,
2013-08-22 09:31:00,75.9,75.3,30.12,SSW,202,0.0,0.0,98,0.00,CLR,,0.00,WeatherDisplay:10.37,2013-08-22 13:31:00,
2013-08-22 09:36:00,76.1,75.5,30.12,South,180,0.0,0.0,98,0.00,CLR,,0.00,WeatherDisplay:10.37,2013-08-22 13:36:00,
2013-08-22 09:41:00,76.6,76.0,30.12,South,180,0.0,0.0,98,0.00,CLR,,0.00,WeatherDisplay:10.37,2013-08-22 13:41:00,
2013-08-22 09:46:00,76.5,75.5,30.12,SE,135,0.0,0.0,97,0.00,CLR,,0.00,WeatherDisplay:10.37,2013-08-22 13:46:00,
2013-08-22 09:51:00,76.6,75.4,30.12,North,0,0.0,0.0,96,0.00,CLR,,0.00,WeatherDisplay:10.37,2013-08-22 13:51:00,
2013-08-22 09:56:00,77.2,75.3,30.09,SSE,158,0.0,0.0,94,0.00,CLR,,0.00,WeatherDisplay:10.37,2013-08-22 13:56:00,
2013-08-22 10:01:00,77.5,74.7,30.09,SSW,202,0.0,0.0,91,0.00,CLR,,0.00,WeatherDisplay:10.37,2013-08-22 14:01:00,
2013-08-22 10:06:00,78.1,74.2,30.09,SE,135,0.0,0.0,88,0.00,CLR,,0.00,WeatherDisplay:10.37,2013-08-22 14:06:00,
2013-08-22 10:11:00,78.3,73.0,30.12,SSW,202,0.0,0.0,84,0.00,CLR,,0.00,WeatherDisplay:10.37,2013-08-22 14:11:00,
2013-08-22 10:16:00,78.3,71.9,30.12,NNE,22,0.0,0.0,81,0.00,CLR,,0.00,WeatherDisplay:10.37,2013-08-22 14:16:00,
2013-08-22 10:21:00,78.4,71.8,30.12,South,180,0.0,0.0,80,0.00,CLR,,0.00,WeatherDisplay:10.37,2013-08-22 14:21:00,
2013-08-22 10:26:00,79.0,71.9,30.09,East,90,0.0,0.0,79,0.00,CLR,,0.00,WeatherDisplay:10.37,2013-08-22 14:26:00,
2013-08-22 10:31:00,79.2,72.1,30.09,North,0,0.0,0.0,79,0.00,CLR,,0.00,WeatherDisplay:10.37,2013-08-22 14:31:00,
2013-08-22 10:36:00,80.6,72.3,30.09,North,0,0.0,0.0,76,0.00,CLR,,0.00,WeatherDisplay:10.37,2013-08-22 14:36:00,
2013-08-22 10:41:00,81.3,71.4,30.12,South,180,0.0,0.0,72,0.00,CLR,,0.00,WeatherDisplay:10.37,2013-08-22 14:41:00,
2013-08-22 10:46:00,81.9,70.7,30.12,East,90,0.0,0.0,69,0.00,CLR,,0.00,WeatherDisplay:10.37,2013-08-22 14:46:00,
2013-08-22 10:51:00,83.8,71.7,30.12,SSE,158,0.0,0.0,67,0.00,CLR,,0.00,WeatherDisplay:10.37,2013-08-22 14:51:00,
2013-08-22 10:56:00,84.9,70.9,30.12,SE,135,0.0,0.0,63,0.00,CLR,,0.00,WeatherDisplay:10.37,2013-08-22 14:56:00,
2013-08-22 11:01:00,85.5,70.5,30.12,NNE,22,0.0,0.0,61,0.00,CLR,,0.00,WeatherDisplay:10.37,2013-08-22 15:01:00,
2013-08-22 11:06:00,86.2,70.2,30.12,SSW,202,0.0,0.0,59,0.00,CLR,,0.00,WeatherDisplay:10.37,2013-08-22 15:06:00,
2013-08-22 11:11:00,86.5,68.5,30.12,SW,225,0.0,0.0,55,0.00,CLR,,0.00,WeatherDisplay:10.37,2013-08-22 15:11:00,
2013-08-22 11:16:00,87.1,69.0,30.12,SSW,202,0.0,0.0,55,0.00,CLR,,0.00,WeatherDisplay:10.37,2013-08-22 15:16:00,
2013-08-22 11:21:00,86.9,66.0,30.12,South,180,0.0,0.0,50,0.00,CLR,,0.00,WeatherDisplay:10.37,2013-08-22 15:21:00,
2013-08-22 11:26:00,86.9,67.7,30.12,SW,225,0.0,0.0,53,0.00,CLR,,0.00,WeatherDisplay:10.37,2013-08-22 15:26:00,
2013-08-22 11:31:00,87.1,67.3,30.12,SSW,202,0.0,0.0,52,0.00,CLR,,0.00,WeatherDisplay:10.37,2013-08-22 15:31:00,
2013-08-22 11:36:00,87.4,64.7,30.12,SE,135,0.0,0.0,47,0.00,CLR,,0.00,WeatherDisplay:10.37,2013-08-22 15:36:00,
2013-08-22 11:41:00,88.7,67.1,30.09,SE,135,0.0,0.0,49,0.00,CLR,,0.00,WeatherDisplay:10.37,2013-08-22 15:41:00,
2013-08-22 11:46:00,89.6,66.7,30.09,North,0,0.0,0.0,47,0.00,CLR,,0.00,WeatherDisplay:10.37,2013-08-22 15:46:00,
2013-08-22 11:51:00,89.1,64.3,30.09,SSW,202,0.0,0.0,44,0.00,CLR,,0.00,WeatherDisplay:10.37,2013-08-22 15:51:00,
2013-08-22 11:56:00,88.9,66.0,30.09,South,180,0.0,0.0,47,0.00,CLR,,0.00,WeatherDisplay:10.37,2013-08-22 15:56:00,
2013-08-22 12:01:00,88.9,64.1,30.09,North,0,0.0,0.0,44,0.00,CLR,,0.00,WeatherDisplay:10.37,2013-08-22 16:01:00,
2013-08-22 12:06:00,88.5,65.1,30.09,SE,135,0.0,0.0,46,0.00,CLR,,0.00,WeatherDisplay:10.37,2013-08-22 16:06:00,
2013-08-22 12:11:00,88.7,64.0,30.09,NNE,22,0.0,0.0,44,0.00,CLR,,0.00,WeatherDisplay:10.37,2013-08-22 16:11:00,
2013-08-22 12:16:00,90.5,64.3,30.09,NNE,22,0.0,0.0,42,0.00,CLR,,0.00,WeatherDisplay:10.37,2013-08-22 16:16:00,
2013-08-22 12:21:00,91.4,65.1,30.09,SE,135,0.0,0.0,42,0.00,CLR,,0.00,WeatherDisplay:10.37,2013-08-22 16:21:00,
2013-08-22 12:26:00,90.5,62.2,30.09,North,0,0.0,0.0,39,0.00,CLR,,0.00,WeatherDisplay:10.37,2013-08-22 16:26:00,
2013-08-22 12:31:00,90.9,63.9,30.09,NE,45,0.0,0.0,41,0.00,CLR,,0.00,WeatherDisplay:10.37,2013-08-22 16:31:00,
2013-08-22 12:36:00,90.9,64.6,30.09,South,180,0.0,0.0,42,0.00,CLR,,0.00,WeatherDisplay:10.37,2013-08-22 16:36:00,
2013-08-22 12:41:00,90.3,62.7,30.09,SW,225,0.0,0.0,40,0.00,CLR,,0.00,WeatherDisplay:10.37,2013-08-22 16:41:00,
2013-08-22 12:46:00,90.7,62.3,30.09,SE,135,0.0,0.0,39,0.00,CLR,,0.00,WeatherDisplay:10.37,2013-08-22 16:46:00,
2013-08-22 12:51:00,91.2,62.1,30.09,ENE,68,0.0,0.0,38,0.00,CLR,,0.00,WeatherDisplay:10.37,2013-08-22 16:51:00,
2013-08-22 12:56:00,91.2,58.9,30.09,South,180,0.0,0.0,34,0.00,CLR,,0.00,WeatherDisplay:10.37,2013-08-22 16:56:00,
2013-08-22 13:01:00,90.5,60.7,30.09,South,180,0.0,0.0,37,0.00,CLR,,0.00,WeatherDisplay:10.37,2013-08-22 17:01:00,
2013-08-22 13:06:00,91.6,61.6,30.09,SE,135,0.0,0.0,37,0.00,CLR,,0.00,WeatherDisplay:10.37,2013-08-22 17:06:00,
2013-08-22 13:11:00,91.8,60.2,30.09,SSW,202,0.0,0.0,35,0.00,CLR,,0.00,WeatherDisplay:10.37,2013-08-22 17:11:00,
2013-08-22 13:16:00,91.6,61.6,30.09,SSE,158,0.0,0.0,37,0.00,CLR,,0.00,WeatherDisplay:10.37,2013-08-22 17:16:00,
2013-08-22 13:21:00,91.6,62.4,30.09,SW,225,0.0,0.0,38,0.00,CLR,,0.00,WeatherDisplay:10.37,2013-08-22 17:21:00,
2013-08-22 13:26:00,92.8,58.6,30.06,SSE,158,0.0,0.0,32,0.00,CLR,,0.00,WeatherDisplay:10.37,2013-08-22 17:26:00,
2013-08-22 13:31:00,93.7,59.4,30.06,North,0,0.0,0.0,32,0.00,CLR,,0.00,WeatherDisplay:10.37,2013-08-22 17:31:00,
2013-08-22 13:36:00,92.3,58.2,30.06,East,90,0.0,0.0,32,0.00,CLR,,0.00,WeatherDisplay:10.37,2013-08-22 17:36:00,
2013-08-22 13:41:00,94.3,59.0,30.06,SSW,202,0.0,0.0,31,0.00,CLR,,0.00,WeatherDisplay:10.37,2013-08-22 17:41:00,
2013-08-22 13:46:00,94.3,58.1,30.06,SSE,158,0.0,0.0,30,0.00,CLR,,0.00,WeatherDisplay:10.37,2013-08-22 17:46:00,
2013-08-22 13:51:00,93.4,58.2,30.06,SE,135,0.0,0.0,31,0.00,CLR,,0.00,WeatherDisplay:10.37,2013-08-22 17:51:00,
2013-08-22 13:56:00,92.8,57.8,30.06,South,180,0.0,0.0,31,0.00,CLR,,0.00,WeatherDisplay:10.37,2013-08-22 17:56:00,
2013-08-22 14:01:00,91.8,56.8,30.06,SE,135,0.0,0.0,31,0.00,CLR,,0.00,WeatherDisplay:10.37,2013-08-22 18:01:00,
2013-08-22 14:06:00,91.9,57.9,30.06,SSW,202,0.0,0.0,32,0.00,CLR,,0.00,WeatherDisplay:10.37,2013-08-22 18:06:00,
2013-08-22 14:11:00,92.1,56.2,30.06,SW,225,0.0,0.0,30,0.00,CLR,,0.00,WeatherDisplay:10.37,2013-08-22 18:11:00,
2013-08-22 14:16:00,93.7,59.4,30.06,SE,135,0.0,0.0,32,0.00,CLR,,0.00,WeatherDisplay:10.37,2013-08-22 18:16:00,
2013-08-22 14:21:00,95.0,60.5,30.06,ENE,68,0.0,0.0,32,0.00,CLR,,0.00,WeatherDisplay:10.37,2013-08-22 18:21:00,
2013-08-22 14:26:00,95.9,57.6,30.03,North,0,0.0,0.0,28,0.00,CLR,,0.00,WeatherDisplay:10.37,2013-08-22 18:26:00,
2013-08-22 14:31:00,95.2,56.9,30.03,North,0,0.0,0.0,28,0.00,CLR,,0.00,WeatherDisplay:10.37,2013-08-22 18:31:00,
2013-08-22 14:36:00,95.5,57.2,30.03,North,0,0.0,0.0,28,0.00,CLR,,0.00,WeatherDisplay:10.37,2013-08-22 18:36:00,
2013-08-22 14:41:00,95.0,57.8,30.03,North,0,0.0,0.0,29,0.00,CLR,,0.00,WeatherDisplay:10.37,2013-08-22 18:41:00,
2013-08-22 14:46:00,95.0,59.6,30.03,North,0,0.0,0.0,31,0.00,CLR,,0.00,WeatherDisplay:10.37,2013-08-22 18:46:00,
2013-08-22 14:51:00,94.3,58.1,30.03,North,0,0.0,0.0,30,0.00,CLR,,0.00,WeatherDisplay:10.37,2013-08-22 18:51:00,
2013-08-22 14:56:00,93.9,57.8,30.03,SSE,158,0.0,0.0,30,0.00,CLR,,0.00,WeatherDisplay:10.37,2013-08-22 18:56:00,
2013-08-22 15:01:00,93.0,57.0,30.03,SE,135,0.0,0.0,30,0.00,CLR,,0.00,WeatherDisplay:10.37,2013-08-22 19:01:00,
2013-08-22 15:06:00,93.7,58.5,30.03,ESE,112,0.0,0.0,31,0.00,CLR,,0.00,WeatherDisplay:10.37,2013-08-22 19:06:00,
2013-08-22 15:11:00,93.7,57.6,30.03,SSW,202,0.0,0.0,30,0.00,CLR,,0.00,WeatherDisplay:10.37,2013-08-22 19:11:00,
2013-08-22 15:16:00,94.3,58.1,30.03,South,180,0.0,0.0,30,0.00,CLR,,0.00,WeatherDisplay:10.37,2013-08-22 19:16:00,
2013-08-22 15:21:00,93.7,59.4,30.03,North,0,0.0,0.0,32,0.00,CLR,,0.00,WeatherDisplay:10.37,2013-08-22 19:21:00,
2013-08-22 15:26:00,92.8,58.6,30.00,North,0,0.0,0.0,32,0.00,CLR,,0.00,WeatherDisplay:10.37,2013-08-22 19:26:00,
2013-08-22 15:31:00,94.5,62.6,30.00,North,0,0.0,0.0,35,0.00,CLR,,0.00,WeatherDisplay:10.37,2013-08-22 19:31:00,
2013-08-22 15:36:00,95.2,58.9,30.00,North,0,0.0,0.0,30,0.00,CLR,,0.00,WeatherDisplay:10.37,2013-08-22 19:36:00,
2013-08-22 15:41:00,94.8,58.6,30.00,NE,45,0.0,0.0,30,0.00,CLR,,0.00,WeatherDisplay:10.37,2013-08-22 19:41:00,
2013-08-22 15:46:00,94.8,59.5,30.00,ENE,68,0.0,0.0,31,0.00,CLR,,0.00,WeatherDisplay:10.37,2013-08-22 19:46:00,
2013-08-22 15:51:00,94.3,60.8,30.00,SE,135,0.0,0.0,33,0.00,CLR,,0.00,WeatherDisplay:10.37,2013-08-22 19:51:00,
2013-08-22 15:56:00,94.6,60.2,30.00,SE,135,0.0,0.0,32,0.00,CLR,,0.00,WeatherDisplay:10.37,2013-08-22 19:56:00,
2013-08-22 16:01:00,95.2,57.9,30.00,SE,135,0.0,0.0,29,0.00,CLR,,0.00,WeatherDisplay:10.37,2013-08-22 20:01:00,
2013-08-22 16:06:00,94.5,60.1,30.00,SE,135,0.0,0.0,32,0.00,CLR,,0.00,WeatherDisplay:10.37,2013-08-22 20:06:00,
2013-08-22 16:11:00,93.6,59.3,30.00,NE,45,0.0,0.0,32,0.00,CLR,,0.00,WeatherDisplay:10.37,2013-08-22 20:11:00,
2013-08-22 16:16:00,94.6,58.4,30.00,North,0,0.0,0.0,30,0.00,CLR,,0.00,WeatherDisplay:10.37,2013-08-22 20:16:00,
2013-08-22 16:21:00,93.6,59.3,30.00,SSE,158,0.0,0.0,32,0.00,CLR,,0.00,WeatherDisplay:10.37,2013-08-22 20:21:00,
2013-08-22 16:26:00,93.7,58.5,30.00,South,180,0.0,0.0,31,0.00,CLR,,0.00,WeatherDisplay:10.37,2013-08-22 20:26:00,
2013-08-22 16:31:00,93.0,60.5,30.00,South,180,0.0,0.0,34,0.00,CLR,,0.00,WeatherDisplay:10.37,2013-08-22 20:31:00,
2013-08-22 16:36:00,91.9,61.9,30.00,SE,135,0.0,0.0,37,0.00,CLR,,0.00,WeatherDisplay:10.37,2013-08-22 20:36:00,
2013-08-22 16:41:00,91.8,56.8,30.00,North,0,0.0,0.0,31,0.00,CLR,,0.00,WeatherDisplay:10.37,2013-08-22 20:41:00,
2013-08-22 16:46:00,91.8,60.2,30.00,North,0,0.0,0.0,35,0.00,CLR,,0.00,WeatherDisplay:10.37,2013-08-22 20:46:00,
2013-08-22 16:51:00,91.6,60.9,30.00,North,0,0.0,0.0,36,0.00,CLR,,0.00,WeatherDisplay:10.37,2013-08-22 20:51:00,
2013-08-22 16:56:00,91.9,61.9,30.00,SW,225,0.0,0.0,37,0.00,CLR,,0.00,WeatherDisplay:10.37,2013-08-22 20:56:00,
2013-08-22 17:01:00,92.1,62.1,30.00,SSE,158,0.0,0.0,37,0.00,CLR,,0.00,WeatherDisplay:10.37,2013-08-22 21:01:00,
2013-08-22 17:06:00,91.2,62.1,30.00,South,180,0.0,0.0,38,0.00,CLR,,0.00,WeatherDisplay:10.37,2013-08-22 21:06:00,
2013-08-22 17:11:00,90.3,62.7,29.97,SW,225,0.0,0.0,40,0.00,CLR,,0.00,WeatherDisplay:10.37,2013-08-22 21:11:00,
2013-08-22 17:16:00,89.6,62.1,29.97,SE,135,0.0,0.0,40,0.00,CLR,,0.00,WeatherDisplay:10.37,2013-08-22 21:16:00,
2013-08-22 17:21:00,87.6,61.7,29.97,North,0,0.0,0.0,42,0.00,CLR,,0.00,WeatherDisplay:10.37,2013-08-22 21:21:00,
2013-08-22 17:26:00,87.6,61.7,29.97,North,0,0.0,0.0,42,0.00,CLR,,0.00,WeatherDisplay:10.37,2013-08-22 21:26:00,
2013-08-22 17:31:00,87.6,61.7,29.97,North,0,0.0,0.0,42,0.00,CLR,,0.00,WeatherDisplay:10.37,2013-08-22 21:31:00,
2013-08-22 17:36:00,87.3,64.6,29.97,North,0,0.0,0.0,47,0.00,CLR,,0.00,WeatherDisplay:10.37,2013-08-22 21:36:00,
2013-08-22 17:41:00,87.1,65.0,29.97,North,0,0.0,0.0,48,0.00,CLR,,0.00,WeatherDisplay:10.37,2013-08-22 21:41:00,
2013-08-22 17:46:00,86.4,64.9,29.97,North,0,0.0,0.0,49,0.00,CLR,,0.00,WeatherDisplay:10.37,2013-08-22 21:46:00,
2013-08-22 17:51:00,85.6,64.9,29.97,North,0,0.0,0.0,50,0.00,CLR,,0.00,WeatherDisplay:10.37,2013-08-22 21:51:00,
2013-08-22 17:56:00,85.3,66.2,29.97,North,0,0.0,0.0,53,0.00,CLR,,0.00,WeatherDisplay:10.37,2013-08-22 21:56:00,
2013-08-22 18:01:00,84.4,65.9,29.97,North,0,0.0,0.0,54,0.00,CLR,,0.00,WeatherDisplay:10.37,2013-08-22 22:01:00,
2013-08-22 18:06:00,84.2,67.3,29.97,North,0,0.0,0.0,57,0.00,CLR,,0.00,WeatherDisplay:10.37,2013-08-22 22:06:00,
2013-08-22 18:11:00,83.8,69.0,29.97,North,0,0.0,0.0,61,0.00,CLR,,0.00,WeatherDisplay:10.37,2013-08-22 22:11:00,
2013-08-22 18:16:00,83.7,69.3,29.97,North,0,0.0,0.0,62,0.00,CLR,,0.00,WeatherDisplay:10.37,2013-08-22 22:16:00,
2013-08-22 18:21:00,83.3,68.4,29.97,North,0,0.0,0.0,61,0.00,CLR,,0.00,WeatherDisplay:10.37,2013-08-22 22:21:00,
2013-08-22 18:26:00,82.9,69.0,29.97,North,0,0.0,0.0,63,0.00,CLR,,0.00,WeatherDisplay:10.37,2013-08-22 22:26:00,
2013-08-22 18:31:00,82.8,69.8,29.97,North,0,0.0,0.0,65,0.00,CLR,,0.00,WeatherDisplay:10.37,2013-08-22 22:31:00,
2013-08-22 18:36:00,82.6,70.1,29.97,North,0,0.0,0.0,66,0.00,CLR,,0.00,WeatherDisplay:10.37,2013-08-22 22:36:00,
2013-08-22 18:41:00,82.2,70.2,29.97,North,0,0.0,0.0,67,0.00,CLR,,0.00,WeatherDisplay:10.37,2013-08-22 22:41:00,
2013-08-22 18:46:00,82.0,70.4,29.97,North,0,0.0,0.0,68,0.00,CLR,,0.00,WeatherDisplay:10.37,2013-08-22 22:46:00,
2013-08-22 18:51:00,81.9,70.7,29.97,North,0,0.0,0.0,69,0.00,CLR,,0.00,WeatherDisplay:10.37,2013-08-22 22:51:00,
2013-08-22 18:56:00,81.5,70.8,29.97,North,0,0.0,0.0,70,0.00,CLR,,0.00,WeatherDisplay:10.37,2013-08-22 22:56:00,
2013-08-22 19:01:00,81.1,70.4,29.97,North,0,0.0,0.0,70,0.00,CLR,,0.00,WeatherDisplay:10.37,2013-08-22 23:01:00,
2013-08-22 19:06:00,81.0,70.7,29.97,North,0,0.0,0.0,71,0.00,CLR,,0.00,WeatherDisplay:10.37,2013-08-22 23:06:00,
2013-08-22 19:11:00,80.8,71.3,29.97,North,0,0.0,0.0,73,0.00,CLR,,0.00,WeatherDisplay:10.37,2013-08-22 23:11:00,
2013-08-22 19:16:00,80.4,71.0,29.97,North,0,0.0,0.0,73,0.00,CLR,,0.00,WeatherDisplay:10.37,2013-08-22 23:16:00,
2013-08-22 19:21:00,80.2,71.2,29.97,North,0,0.0,0.0,74,0.00,CLR,,0.00,WeatherDisplay:10.37,2013-08-22 23:21:00,
2013-08-22 19:26:00,79.9,70.4,29.97,North,0,0.0,0.0,73,0.00,CLR,,0.00,WeatherDisplay:10.37,2013-08-22 23:26:00,
2013-08-22 19:31:00,79.7,70.7,29.97,North,0,0.0,0.0,74,0.00,CLR,,0.00,WeatherDisplay:10.37,2013-08-22 23:31:00,
2013-08-22 19:36:00,79.5,70.5,29.97,North,0,0.0,0.0,74,0.00,CLR,,0.00,WeatherDisplay:10.37,2013-08-22 23:36:00,
2013-08-22 19:41:00,79.2,69.8,30.00,North,0,0.0,0.0,73,0.00,CLR,,0.00,WeatherDisplay:10.37,2013-08-22 23:41:00,
2013-08-22 19:46:00,78.8,70.6,30.00,North,0,0.0,0.0,76,0.00,CLR,,0.00,WeatherDisplay:10.37,2013-08-22 23:46:00,
2013-08-22 19:51:00,78.8,70.6,30.00,North,0,0.0,0.0,76,0.00,CLR,,0.00,WeatherDisplay:10.37,2013-08-22 23:51:00,
2013-08-22 19:56:00,78.6,71.2,30.00,North,0,0.0,0.0,78,0.00,CLR,,0.00,WeatherDisplay:10.37,2013-08-22 23:56:00,
2013-08-22 20:01:00,78.4,71.4,30.00,North,0,0.0,0.0,79,0.00,CLR,,0.00,WeatherDisplay:10.37,2013-08-23 00:01:00,
2013-08-22 20:06:00,78.3,71.2,30.00,North,0,0.0,0.0,79,0.00,CLR,,0.00,WeatherDisplay:10.37,2013-08-23 00:06:00,
2013-08-22 20:11:00,78.1,71.8,30.00,North,0,0.0,0.0,81,0.00,CLR,,0.00,WeatherDisplay:10.37,2013-08-23 00:11:00,
2013-08-22 20:16:00,77.9,72.0,30.00,North,0,0.0,0.0,82,0.00,CLR,,0.00,WeatherDisplay:10.37,2013-08-23 00:16:00,
2013-08-22 20:21:00,77.7,72.1,30.00,North,0,0.0,0.0,83,0.00,CLR,,0.00,WeatherDisplay:10.37,2013-08-23 00:21:00,
2013-08-22 20:26:00,77.5,72.3,30.00,North,0,0.0,0.0,84,0.00,CLR,,0.00,WeatherDisplay:10.37,2013-08-23 00:26:00,
2013-08-22 20:31:00,77.5,72.7,30.00,North,0,0.0,0.0,85,0.00,CLR,,0.00,WeatherDisplay:10.37,2013-08-23 00:31:00,
2013-08-22 20:36:00,77.4,72.5,30.00,North,0,0.0,0.0,85,0.00,CLR,,0.00,WeatherDisplay:10.37,2013-08-23 00:36:00,
2013-08-22 20:41:00,77.2,72.7,30.00,North,0,0.0,0.0,86,0.00,CLR,,0.00,WeatherDisplay:10.37,2013-08-23 00:41:00,
2013-08-22 20:46:00,77.2,72.7,30.00,North,0,0.0,0.0,86,0.00,CLR,,0.00,WeatherDisplay:10.37,2013-08-23 00:46:00,
2013-08-22 20:51:00,77.0,72.5,30.00,North,0,0.0,0.0,86,0.00,CLR,,0.00,WeatherDisplay:10.37,2013-08-23 00:51:00,
2013-08-22 20:56:00,76.8,72.7,30.00,North,0,0.0,0.0,87,0.00,CLR,,0.00,WeatherDisplay:10.37,2013-08-23 00:56:00,
2013-08-22 21:01:00,76.6,72.8,30.00,North,0,0.0,0.0,88,0.00,CLR,,0.00,WeatherDisplay:10.37,2013-08-23 01:01:00,
2013-08-22 21:06:00,76.5,72.6,30.00,North,0,0.0,0.0,88,0.00,CLR,,0.00,WeatherDisplay:10.37,2013-08-23 01:06:00,
2013-08-22 21:11:00,76.5,72.6,30.00,North,0,0.0,0.0,88,0.00,CLR,,0.00,WeatherDisplay:10.37,2013-08-23 01:11:00,
2013-08-22 21:16:00,76.5,73.0,30.00,North,0,0.0,0.0,89,0.00,CLR,,0.00,WeatherDisplay:10.37,2013-08-23 01:16:00,
2013-08-22 21:21:00,76.3,72.8,30.00,North,0,0.0,0.0,89,0.00,CLR,,0.00,WeatherDisplay:10.37,2013-08-23 01:21:00,
2013-08-22 21:26:00,76.3,72.8,30.00,North,0,0.0,0.0,89,0.00,CLR,,0.00,WeatherDisplay:10.37,2013-08-23 01:26:00,
2013-08-22 21:31:00,76.1,72.6,30.00,North,0,0.0,0.0,89,0.00,CLR,,0.00,WeatherDisplay:10.37,2013-08-23 01:31:00,
2013-08-22 21:36:00,75.9,72.4,30.00,North,0,0.0,0.0,89,0.00,CLR,,0.00,WeatherDisplay:10.37,2013-08-23 01:36:00,
2013-08-22 21:41:00,75.9,72.8,30.00,North,0,0.0,0.0,90,0.00,CLR,,0.00,WeatherDisplay:10.37,2013-08-23 01:41:00,
2013-08-22 21:46:00,75.9,72.8,30.00,North,0,0.0,0.0,90,0.00,CLR,,0.00,WeatherDisplay:10.37,2013-08-23 01:46:00,
2013-08-22 21:51:00,75.7,72.6,30.00,North,0,0.0,0.0,90,0.00,CLR,,0.00,WeatherDisplay:10.37,2013-08-23 01:51:00,
2013-08-22 21:56:00,75.7,72.9,30.03,North,0,0.0,0.0,91,0.00,CLR,,0.00,WeatherDisplay:10.37,2013-08-23 01:56:00,
2013-08-22 22:01:00,75.7,72.9,30.03,North,0,0.0,0.0,91,0.00,CLR,,0.00,WeatherDisplay:10.37,2013-08-23 02:01:00,
2013-08-22 22:06:00,75.6,72.7,30.03,North,0,0.0,0.0,91,0.00,CLR,,0.00,WeatherDisplay:10.37,2013-08-23 02:06:00,
2013-08-22 22:11:00,75.6,72.7,30.03,North,0,0.0,0.0,91,0.00,CLR,,0.00,WeatherDisplay:10.37,2013-08-23 02:11:00,
2013-08-22 22:16:00,75.4,72.6,30.03,North,0,0.0,0.0,91,0.00,CLR,,0.00,WeatherDisplay:10.37,2013-08-23 02:16:00,
2013-08-22 22:21:00,75.2,72.7,30.03,North,0,0.0,0.0,92,0.00,CLR,,0.00,WeatherDisplay:10.37,2013-08-23 02:21:00,
2013-08-22 22:26:00,75.2,72.7,30.03,North,0,0.0,0.0,92,0.00,CLR,,0.00,WeatherDisplay:10.37,2013-08-23 02:26:00,
2013-08-22 22:31:00,75.2,72.7,30.03,North,0,0.0,0.0,92,0.00,CLR,,0.00,WeatherDisplay:10.37,2013-08-23 02:31:00,
2013-08-22 22:36:00,75.2,73.0,30.03,North,0,0.0,0.0,93,0.00,CLR,,0.00,WeatherDisplay:10.37,2013-08-23 02:36:00,
2013-08-22 22:41:00,75.0,72.9,30.00,North,0,0.0,0.0,93,0.00,CLR,,0.00,WeatherDisplay:10.37,2013-08-23 02:41:00,
2013-08-22 22:46:00,74.8,72.7,30.00,North,0,0.0,0.0,93,0.00,CLR,,0.00,WeatherDisplay:10.37,2013-08-23 02:46:00,
2013-08-22 22:51:00,75.0,72.9,30.00,North,0,0.0,0.0,93,0.00,CLR,,0.00,WeatherDisplay:10.37,2013-08-23 02:51:00,
2013-08-22 22:56:00,74.8,72.7,30.00,North,0,0.0,0.0,93,0.00,CLR,,0.00,WeatherDisplay:10.37,2013-08-23 02:56:00,
2013-08-22 23:01:00,74.8,72.7,30.00,North,0,0.0,0.0,93,0.00,CLR,,0.00,WeatherDisplay:10.37,2013-08-23 03:01:00,
2013-08-22 23:06:00,74.7,72.5,30.00,North,0,0.0,0.0,93,0.00,CLR,,0.00,WeatherDisplay:10.37,2013-08-23 03:06:00,
2013-08-22 23:11:00,74.5,72.3,30.00,North,0,0.0,0.0,93,0.00,CLR,,0.00,WeatherDisplay:10.37,2013-08-23 03:11:00,
2013-08-22 23:16:00,74.5,72.6,30.00,North,0,0.0,0.0,94,0.00,CLR,,0.00,WeatherDisplay:10.37,2013-08-23 03:16:00,
2013-08-22 23:21:00,74.5,72.6,30.00,North,0,0.0,0.0,94,0.00,CLR,,0.00,WeatherDisplay:10.37,2013-08-23 03:21:00,
2013-08-22 23:26:00,74.3,72.5,30.00,North,0,0.0,0.0,94,0.00,CLR,,0.00,WeatherDisplay:10.37,2013-08-23 03:26:00,
2013-08-22 23:31:00,74.3,72.5,30.00,North,0,0.0,0.0,94,0.00,CLR,,0.00,WeatherDisplay:10.37,2013-08-23 03:31:00,
2013-08-22 23:36:00,74.3,72.5,30.00,North,0,0.0,0.0,94,0.00,CLR,,0.00,WeatherDisplay:10.37,2013-08-23 03:36:00,
2013-08-22 23:41:00,74.3,72.5,30.00,North,0,0.0,0.0,94,0.00,CLR,,0.00,WeatherDisplay:10.37,2013-08-23 03:41:00,
2013-08-22 23:46:00,74.3,72.5,30.00,North,0,0.0,0.0,94,0.00,CLR,,0.00,WeatherDisplay:10.37,2013-08-23 03:46:00,
2013-08-22 23:51:00,74.3,72.8,30.00,North,0,0.0,0.0,95,0.00,CLR,,0.00,WeatherDisplay:10.37,2013-08-23 03:51:00,
2013-08-22 23:56:00,74.3,72.8,30.00,North,0,0.0,0.0,95,0.00,CLR,,0.00,WeatherDisplay:10.37,2013-08-23 03:56:00,